Weather History for Norman, OK

Change the Weather History Date:

Friday, November 8, 2013

  Actual Average Record
Temperature  
Mean Temperature 52 °F -  
Max Temperature 64 °F 61 °F 84 °F (2005)
Min Temperature 41 °F 43 °F 25 °F (1951)
Degree Days  
Heating Degree Days 12    
Growing Degree Days 2 (Base 50)    
Moisture  
Dew Point 36 °F    
Average Humidity 59    
Maximum Humidity 87    
Minimum Humidity 34    
Precipitation  
Precipitation 0.00 in - - ()
Sea Level Pressure  
Sea Level Pressure 30.20 in    
Wind  
Wind Speed 11 mph (South)    
Max Wind Speed 25 mph    
Max Gust Speed 32 mph    
Visibility 10 miles    
Events      
Averages and records for this station are not official NWS values.
T = Trace of Precipitation, MM = Missing Value Source: NWS Daily Summary

Daily Weather History Graph

Daily Weather History Graph

Search for Another Location

Airport:

Trip Planner

Search our weather history database for the weather conditions in past years. The results will help you decide how hot, cold, wet, or windy it might be!

Date:

Astronomy

Nov. 08, 2013 Rise Set
Actual Time 6:58 AM CST 5:28 PM CST
Civil Twilight 6:31 AM CST 5:55 PM CST
Nautical Twilight 6:01 AM CST 6:25 PM CST
Astronomical Twilight 5:31 AM CST 6:55 PM CST
Moon 11:54 AM CST (11/8) 10:50 PM CST (11/8)
Length of Visible Light 11h 23m
Length of Day
10h 30m
Waxing Crescent, 33% of the Moon is Illuminated
Nov 8
Waxing Crescent
Nov 9
First Quarter
Nov 17
Full
Nov 25
Last Quarter
Dec 2
New

Hourly Weather History & Observations

Time (CST) Temp. Windchill Dew Point Humidity Pressure Visibility Wind Dir Wind Speed Gust Speed Precip Events Conditions
12:15 AM 44.6 °F 41.4 °F 35.6 °F 71% 30.35 in 10.0 mi SSW 5.8 mph - N/A   Clear
12:35 AM 42.8 °F 38.6 °F 35.6 °F 76% 30.34 in 10.0 mi SSW 6.9 mph - N/A   Clear
12:55 AM 42.8 °F 38.0 °F 35.6 °F 76% 30.34 in 10.0 mi SSW 8.1 mph - N/A   Clear
1:15 AM 42.8 °F 39.3 °F 35.6 °F 76% 30.34 in 10.0 mi SSW 5.8 mph - N/A   Clear
1:35 AM 42.8 °F 38.6 °F 35.6 °F 76% 30.34 in 10.0 mi SSW 6.9 mph - N/A   Clear
1:55 AM 42.8 °F 39.3 °F 35.6 °F 76% 30.33 in 10.0 mi South 5.8 mph - N/A   Clear
2:15 AM 42.8 °F 38.6 °F 35.6 °F 76% 30.33 in 10.0 mi South 6.9 mph - N/A   Clear
2:35 AM 42.8 °F 38.6 °F 35.6 °F 76% 30.33 in 10.0 mi South 6.9 mph - N/A   Unknown
2:55 AM 42.8 °F 38.6 °F 35.6 °F 76% 30.32 in 10.0 mi South 6.9 mph - N/A   Unknown
3:15 AM 42.8 °F 38.6 °F 35.6 °F 76% 30.32 in 10.0 mi South 6.9 mph - N/A   Unknown
3:35 AM 41.0 °F 38.0 °F 35.6 °F 81% 30.31 in 10.0 mi South 4.6 mph - N/A   Unknown
3:55 AM 41.0 °F 37.1 °F 35.6 °F 81% 30.31 in 10.0 mi South 5.8 mph - N/A   Unknown
4:15 AM 41.0 °F 36.4 °F 35.6 °F 81% 30.31 in 10.0 mi South 6.9 mph - N/A   Unknown
4:35 AM 41.0 °F 35.8 °F 35.6 °F 81% 30.30 in 10.0 mi South 8.1 mph - N/A   Clear
4:55 AM 42.8 °F 38.0 °F 35.6 °F 76% 30.30 in 10.0 mi South 8.1 mph - N/A   Clear
5:15 AM 42.8 °F 37.5 °F 35.6 °F 76% 30.30 in 10.0 mi South 9.2 mph - N/A   Clear
5:35 AM 41.0 °F 35.2 °F 35.6 °F 81% 30.30 in 10.0 mi South 9.2 mph - N/A   Clear
5:55 AM 41.0 °F 35.8 °F 35.6 °F 81% 30.29 in 10.0 mi South 8.1 mph - N/A   Clear
6:15 AM 41.0 °F 36.4 °F 35.6 °F 81% 30.29 in 10.0 mi South 6.9 mph - N/A   Clear
6:35 AM 41.0 °F 35.8 °F 35.6 °F 81% 30.29 in 10.0 mi South 8.1 mph - N/A   Unknown
6:55 AM 41.0 °F 35.8 °F 35.6 °F 81% 30.28 in 10.0 mi South 8.1 mph - N/A   Unknown
7:15 AM 41.0 °F 36.4 °F 35.6 °F 81% 30.28 in 10.0 mi South 6.9 mph - N/A   Clear
7:35 AM 41.0 °F 35.2 °F 37.4 °F 87% 30.28 in 10.0 mi South 9.2 mph - N/A   Clear
7:55 AM 42.8 °F 37.5 °F 37.4 °F 81% 30.28 in 10.0 mi South 9.2 mph - N/A   Unknown
8:15 AM 44.6 °F 39.2 °F 37.4 °F 76% 30.29 in 10.0 mi South 10.4 mph - N/A   Unknown
8:35 AM 46.4 °F 41.9 °F 39.2 °F 76% 30.29 in 10.0 mi South 9.2 mph - N/A   Unknown
8:55 AM 50.0 °F - 41.0 °F 71% 30.29 in 10.0 mi South 9.2 mph - N/A   Unknown
9:15 AM 51.8 °F - 41.0 °F 67% 30.28 in 10.0 mi South 9.2 mph - N/A   Clear
9:35 AM 53.6 °F - 41.0 °F 62% 30.28 in 5.0 mi SSW 15.0 mph 20.7 mph N/A   Haze
9:55 AM 55.4 °F - 41.0 °F 58% 30.27 in 10.0 mi SSW 13.8 mph 20.7 mph N/A   Clear
10:15 AM 55.4 °F - 39.2 °F 54% 30.26 in 10.0 mi SSW 18.4 mph 23.0 mph N/A   Clear
10:35 AM 57.2 °F - 37.4 °F 48% 30.26 in 10.0 mi SSW 15.0 mph 24.2 mph N/A   Clear
10:55 AM 59.0 °F - 37.4 °F 45% 30.25 in 10.0 mi SSW 16.1 mph 21.9 mph N/A   Clear
11:15 AM 60.8 °F - 37.4 °F 42% 30.25 in 10.0 mi South 19.6 mph - N/A   Clear
11:35 AM 60.8 °F - 35.6 °F 39% 30.24 in 10.0 mi South 19.6 mph 25.3 mph N/A   Clear
11:55 AM 60.8 °F - 35.6 °F 39% 30.22 in 10.0 mi South 16.1 mph 27.6 mph N/A   Clear
12:15 PM 62.6 °F - 37.4 °F 39% 30.21 in 10.0 mi South 21.9 mph - N/A   Clear
12:35 PM 60.8 °F - 37.4 °F 42% 30.19 in 10.0 mi South 17.3 mph 23.0 mph N/A   Clear
12:55 PM 62.6 °F - 35.6 °F 37% 30.17 in 10.0 mi South 20.7 mph 28.8 mph N/A   Unknown
1:15 PM 62.6 °F - 35.6 °F 37% 30.17 in 10.0 mi South 23.0 mph 29.9 mph N/A   Unknown
1:35 PM 62.6 °F - 35.6 °F 37% 30.16 in 10.0 mi South 25.3 mph 31.1 mph N/A   Unknown
1:55 PM 64.4 °F - 37.4 °F 37% 30.14 in 10.0 mi South 23.0 mph 32.2 mph N/A   Clear
2:15 PM 64.4 °F - 35.6 °F 34% 30.13 in 10.0 mi South 18.4 mph 27.6 mph N/A   Clear
2:35 PM 62.6 °F - 35.6 °F 37% 30.12 in 10.0 mi South 21.9 mph 29.9 mph N/A   Clear
2:55 PM 62.6 °F - 35.6 °F 37% 30.12 in 10.0 mi South 24.2 mph 31.1 mph N/A   Clear
3:15 PM 62.6 °F - 35.6 °F 37% 30.11 in 10.0 mi South 24.2 mph 31.1 mph N/A   Clear
3:35 PM 62.6 °F - 35.6 °F 37% 30.10 in 10.0 mi South 24.2 mph 32.2 mph N/A   Clear
3:55 PM 60.8 °F - 35.6 °F 39% 30.10 in 10.0 mi South 24.2 mph 29.9 mph N/A   Clear
4:15 PM 60.8 °F - 37.4 °F 42% 30.10 in 10.0 mi South 12.7 mph 24.2 mph N/A   Clear
4:35 PM 59.0 °F - 35.6 °F 42% 30.09 in 10.0 mi South 17.3 mph 26.5 mph N/A   Clear
4:55 PM 59.0 °F - 37.4 °F 45% 30.09 in 10.0 mi South 11.5 mph 23.0 mph N/A   Clear
5:15 PM 59.0 °F - 35.6 °F 42% 30.08 in 10.0 mi South 15.0 mph 21.9 mph N/A   Clear
5:35 PM 57.2 °F - 35.6 °F 44% 30.08 in 10.0 mi South 21.9 mph 25.3 mph N/A   Clear
5:55 PM 55.4 °F - 35.6 °F 47% 30.08 in 10.0 mi South 20.7 mph 24.2 mph N/A   Clear
6:15 PM 55.4 °F - 35.6 °F 47% 30.07 in 10.0 mi South 21.9 mph 26.5 mph N/A   Clear
6:35 PM 55.4 °F - 35.6 °F 47% 30.07 in 10.0 mi South 16.1 mph 21.9 mph N/A   Clear
6:55 PM 55.4 °F - 35.6 °F 47% 30.05 in 10.0 mi South 19.6 mph 27.6 mph N/A   Clear
7:15 PM 53.6 °F - 37.4 °F 54% 30.06 in 10.0 mi South 23.0 mph 28.8 mph N/A   Clear
7:35 PM 53.6 °F - 37.4 °F 54% 30.06 in 10.0 mi South 19.6 mph 26.5 mph N/A   Clear
7:55 PM 53.6 °F - 37.4 °F 54% 30.06 in 10.0 mi South 20.7 mph - N/A   Clear
8:15 PM 53.6 °F - 37.4 °F 54% 30.06 in 10.0 mi South 19.6 mph 26.5 mph N/A   Clear
8:35 PM 53.6 °F - 37.4 °F 54% 30.06 in 10.0 mi South 19.6 mph 24.2 mph N/A   Clear
8:55 PM 53.6 °F - 35.6 °F 51% 30.07 in 10.0 mi South 19.6 mph 24.2 mph N/A   Clear
9:15 PM 53.6 °F - 35.6 °F 51% 30.08 in 10.0 mi South 18.4 mph 27.6 mph N/A   Clear
9:35 PM 53.6 °F - 35.6 °F 51% 30.09 in 10.0 mi South 18.4 mph 25.3 mph N/A   Clear
9:55 PM 53.6 °F - 35.6 °F 51% 30.09 in 10.0 mi South 17.3 mph 25.3 mph N/A   Clear
10:15 PM 53.6 °F - 35.6 °F 51% 30.10 in 10.0 mi South 17.3 mph - N/A   Clear
10:35 PM 51.8 °F - 35.6 °F 54% 30.09 in 10.0 mi South 18.4 mph 24.2 mph N/A   Clear
10:55 PM 51.8 °F - 37.4 °F 58% 30.09 in 10.0 mi South 15.0 mph - N/A   Clear
11:15 PM 51.8 °F - 37.4 °F 58% 30.09 in 10.0 mi South 12.7 mph 17.3 mph N/A   Clear
11:35 PM 51.8 °F - 37.4 °F 58% 30.09 in 10.0 mi South 10.4 mph 16.1 mph N/A   Clear
11:55 PM 50.0 °F - 37.4 °F 62% 30.09 in 7.0 mi South 10.4 mph - N/A   Clear